Home > Weather > Sarajevo > Past weeks

Flag for Bosnia-Herzegovina Past Weather in Sarajevo, Bosnia-Herzegovina — Yesterday and Last 2 Weeks

Now
52 °F

Passing clouds.


Feels Like: 52 °F
Forecast: 48 / 71 °F
Wind: 1 mph from North

Location: Sarajevo / Butmir

Current Time: May 25, 2016 at 3:40:59 AM

Latest Report: May 25, 2016 at 3:00 AM


Visibility: N/A

Pressure: 29.83 "Hg (28.00 "Hg at 526m altitude)

Humidity: 77%

Dew Point: 45 °F

Location of SarajevoLocation

Past Weather in Sarajevo — Graph

°F

Sarajevo Temperature Yesterday

Maximum temperature yesterday: 66 °F (at 11:30 AM)
Minimum temperature yesterday: 50 °F (at 10:00 PM)
Average temperature yesterday: 57 °F

High & Low Weather Summary for the Past Weeks

 TemperatureHumidityPressure
High79 °F (May 22, 5:30 PM)100% (May 11, 5:00 AM)30.18 "Hg (May 11, 5:00 AM)
Low34 °F (May 17, 5:00 AM)23% (May 22, 5:30 PM)29.53 "Hg (May 12, 2:00 PM)
Average56 °F73%29.92 "Hg
* Reported May 10 2:00 AM — May 25 2:00 AM, Sarajevo, Weather by CustomWeather, © 2016

Note: Actual official high and low records may vary slightly from our data, if they occured in-between our weather recording intervals... More about our weather records

Advertising

Sarajevo Weather History for the Previous 24 Hours

Scroll right to see more
 ConditionsComfort  
Time TempWeatherWind HumidityBarometerVisibility
2:00 AM
Wed, May 25
52 °FPassing clouds.1 mph82%29.83 "HgN/A
1:00 AM52 °FPassing clouds.1 mph77%29.83 "HgN/A
12:00 AM50 °FPassing clouds.1 mph88%29.83 "HgN/A
11:00 PM
Tue, May 24
50 °FPassing clouds.1 mph88%29.83 "HgN/A
10:30 PM50 °FPassing clouds.2 mph82%29.83 "HgN/A
10:00 PM50 °FPassing clouds.2 mph82%29.83 "HgN/A
9:30 PM54 °FPassing clouds.2 mph72%29.83 "HgN/A
9:00 PM55 °FScattered clouds.3 mph59%29.83 "HgN/A
8:30 PM55 °FScattered clouds.3 mph67%29.80 "HgN/A
8:00 PM57 °FScattered clouds.3 mph59%29.80 "HgN/A
7:30 PM57 °FScattered clouds.6 mph59%29.80 "HgN/A
7:00 PM57 °FScattered clouds.3 mph59%29.80 "HgN/A
6:30 PM59 °FScattered clouds.5 mph59%29.80 "HgN/A
6:00 PM61 °FScattered clouds.12 mph48%29.77 "HgN/A
5:30 PM61 °FScattered clouds.15 mph48%29.77 "HgN/A
5:00 PM63 °FScattered clouds.13 mph49%29.77 "HgN/A
4:30 PM63 °FScattered clouds.10 mph49%29.77 "HgN/A
4:00 PM61 °FScattered clouds.12 mph52%29.77 "HgN/A
3:30 PM63 °FScattered clouds.6 mph45%29.77 "HgN/A
2:30 PM61 °FScattered clouds.3 mph48%29.80 "HgN/A
2:00 PM61 °FScattered clouds.2 mph52%29.80 "HgN/A
1:30 PM57 °FPartly sunny.3 mph63%29.83 "HgN/A
1:00 PM55 °FPartly sunny.5 mph63%29.83 "HgN/A
12:30 PM57 °FBroken clouds.9 mph51%29.80 "HgN/A
12:00 PM61 °FScattered clouds.5 mph48%29.77 "HgN/A
11:30 AM66 °FScattered clouds.3 mph49%29.77 "HgN/A
11:00 AM59 °FPartly sunny.2 mph59%29.77 "HgN/A
10:30 AM59 °FPartly sunny.2 mph63%29.77 "HgN/A
10:00 AM59 °FPassing clouds.1 mph59%29.80 "HgN/A
9:30 AM55 °FPassing clouds.2 mph72%29.80 "HgN/A
9:00 AM55 °FPassing clouds.2 mph72%29.80 "HgN/A
8:30 AM54 °FScattered clouds.2 mph82%29.80 "HgN/A
8:00 AM54 °FScattered clouds.2 mph72%29.80 "HgN/A
7:30 AM52 °FScattered clouds.2 mph82%29.80 "HgN/A
7:00 AM52 °FLight rain. Broken clouds.3 mph77%29.80 "HgN/A
6:30 AM54 °FPartly sunny.5 mph72%29.80 "HgN/A
6:00 AM54 °FLight rain. Passing clouds.9 mph72%29.77 "HgN/A
5:30 AM54 °FPassing clouds.3 mph63%29.77 "HgN/A
5:00 AM54 °FClear.2 mph58%29.77 "Hg10 mi
4:00 AM57 °FPassing clouds.9 mph51%29.74 "HgN/A
3:00 AM59 °FPassing clouds.6 mph55%29.77 "HgN/A
Weather by CustomWeather, © 2016

See weather overviewHow to use our weather pages